This demonstration page uses our WeatherBlox Daily Observations layout. Learn more.

Left ArrowRight Arrow

40.92945, -100.16068

Hourly Observations for November 4, 2018

Temp ( °F °C ) Dew Point ( °F °C ) Humidity (%) Winds ( mph kmh ) Pressure ( in mb ) Visibility ( mi km ) Precip ( " mm )
12:15 am 00:15 Cloudy 40 4.5 36 2 84 84 N 13 20 30.09 1019 10 16.0934 0 0
12:35 am 00:35 Cloudy 40 4.5 36 2 84 84 NNW 15 24 30.09 1019 10 16.0934 0 0
12:55 am 00:55 Cloudy 40 4.5 35 1.8 83 83 NNW 13 20 30.09 1019 10 16.0934 0 0
1:15 am 01:15 Cloudy 40 4.5 35 1.5 81 81 N 17 28 30.09 1019 10 16.0934 0 0
1:35 am 01:35 Cloudy 40 4.3 35 1.5 82 82 NNW 12 19 30.09 1019 10 16.0934 0 0
1:55 am 01:55 Cloudy 40 4.4 35 1.6 82 82 NNW 12 19 30.09 1019 10 16.0934 0 0
1:15 am 01:15 Cloudy 40 4.3 34 1.2 80 80 NNW 14 22 30.09 1019 10 16.0934 0 0
1:35 am 01:35 Cloudy 40 4.3 33 0.7 78 78 NNW 15 24 30.09 1019 10 16.0934 0 0
1:55 am 01:55 Cloudy 40 4.2 34 1.1 80 80 NNW 13 20 30.09 1019 10 16.0934 0 0
2:15 am 02:15 Cloudy 40 4.3 35 1.4 82 82 NNW 14 22 30.09 1019 10 16.0934 0 0
2:35 am 02:35 Cloudy 40 4.2 34 1.2 81 81 NNW 18 30 30.09 1019 10 16.0934 0 0
2:55 am 02:55 Cloudy 39 4.1 34 1 80 80 NNW 10 17 30.09 1019 10 16.0934 0 0
3:15 am 03:15 Cloudy 39 4.1 34 1.1 81 81 NNW 14 22 30.09 1019 10 16.0934 0 0
3:35 am 03:35 Cloudy 39 4 33 0.6 79 79 NNW 14 22 30.09 1019 10 16.0934 0 0
3:55 am 03:55 Cloudy 39 4 32 0.2 77 77 NNW 10 17 30.09 1019 10 16.0934 0 0
4:15 am 04:15 Cloudy 39 4 32 0.1 76 76 NNW 10 17 30.09 1019 10 16.0934 0 0
4:35 am 04:35 Cloudy 39 4 32 0.1 76 76 NNW 10 17 30.09 1019 10 16.0934 0 0
4:55 am 04:55 Cloudy 39 4 33 0.3 77 77 NNW 7 11 30.09 1019 10 16.0934 0 0
5:15 am 05:15 Cloudy 39 3.8 33 0.5 79 79 NNW 7 11 30.12 1020 10 16.0934 0 0
5:35 am 05:35 Cloudy 39 3.7 33 0.6 80 80 NNW 7 11 30.12 1020 10 16.0934 0 0
5:55 am 05:55 Cloudy 39 3.8 33 0.6 80 80 NNW 6 9 30.12 1020 10 16.0934 0 0
6:15 am 06:15 Cloudy 39 3.7 33 0.5 80 80 N 8 13 30.12 1020 10 16.0934 0 0
6:35 am 06:35 Cloudy 38 3.6 32 0.2 79 79 N 8 13 30.12 1020 10 16.0934 0 0
6:55 am 06:55 Cloudy 38 3.5 32 0.1 79 79 N 6 9 30.12 1020 10 16.0934 0 0
7:15 am 07:15 Cloudy 38 3.4 33 0.4 81 81 NNW 7 11 30.09 1019 10 16.0934 0 0
7:35 am 07:35 Cloudy 39 3.7 32 0 77 77 NNW 9 15 30.06 1018 10 16.0934 0 0
7:55 am 07:55 Cloudy 38 3.6 32 0 78 78 NW 5 7 30.09 1019 10 16.0934 0 0
8:15 am 08:15 Cloudy 39 4 31 -0.4 73 73 NW 9 15 30.06 1018 10 16.0934 0 0
8:35 am 08:35 Cloudy 40 4.3 32 -0.1 73 73 WNW 9 15 30.06 1018 10 16.0934 0 0
8:55 am 08:55 Cloudy 40 4.5 32 -0.1 72 72 WNW 8 13 30.06 1018 10 16.0934 0 0
9:15 am 09:15 Cloudy 41 5 31 -0.3 69 69 NW 10 17 30.06 1018 10 16.0934 0 0
9:35 am 09:35 Cloudy 41 5.1 32 -0.1 69 69 WNW 10 17 30.06 1018 10 16.0934 0 0
9:55 am 09:55 Cloudy 43 6.1 32 0.1 66 66 WNW 9 15 30.06 1018 10 16.0934 0 0
10:15 am 10:15 Mostly Cloudy 43 6.3 31 -0.3 63 63 WNW 13 20 30.03 1017 10 16.0934 0 0
10:35 am 10:35 Cloudy 43 6.2 31 -0.5 63 63 WNW 10 17 30.03 1017 10 16.0934 0 0
10:55 am 10:55 Cloudy 43 6.2 31 -0.8 61 61 W 12 19 30.03 1017 10 16.0934 0 0
11:15 am 11:15 Cloudy 44 6.4 31 -0.5 62 62 WNW 10 17 29.97 1015 10 16.0934 0 0
11:35 am 11:35 Cloudy 45 7.4 32 -0.2 59 59 W 8 13 29.97 1015 10 16.0934 0 0
11:55 am 11:55 Cloudy 45 7.2 32 -0.2 60 60 WNW 12 19 29.97 1015 10 16.0934 0 0
12:15 pm 12:15 Partly Cloudy 45 7.3 31 -0.7 57 57 NW 3 6 29.94 1014 10 16.0934 0 0
12:35 pm 12:35 Partly Cloudy 46 7.8 31 -0.4 56 56 W 8 13 29.94 1014 10 16.0934 0 0
12:55 pm 12:55 Partly Cloudy 47 8.1 32 -0.2 56 56 W 8 13 29.91 1013 10 16.0934 0 0
1:15 pm 13:15 Sunny 48 9 31 -0.3 52 52 W 6 9 29.85 1011 10 16.0934 0 0
1:35 pm 13:35 Sunny 49 9.6 31 -0.5 50 50 W 7 11 29.83 1010 10 16.0934 0 0
1:55 pm 13:55 Sunny 50 10.1 30 -0.9 47 47 W 9 15 29.83 1010 10 16.0934 0 0
2:15 pm 14:15 Sunny 51 10.5 31 -0.4 47 47 WNW 7 11 29.8 1009 10 16.0934 0 0
2:35 pm 14:35 Sunny 51 10.5 31 -0.5 47 47 SW 6 9 29.8 1009 10 16.0934 0 0
2:55 pm 14:55 Sunny 51 10.7 31 -0.6 46 46 WSW 6 9 29.77 1008 10 16.0934 0 0
3:15 pm 15:15 Sunny 52 10.9 31 -0.7 45 45 SW 5 7 29.74 1007 10 16.0934 0 0
3:35 pm 15:35 Sunny 52 11 31 -0.6 45 45 S 3 6 29.74 1007 10 16.0934 0 0
3:55 pm 15:55 Sunny 52 11.1 31 -0.3 46 46 S 6 9 29.74 1007 10 16.0934 0 0
4:15 pm 16:15 Sunny 53 11.4 32 0.1 46 46 S 9 15 29.71 1006 10 16.0934 0 0
4:35 pm 16:35 Partly Cloudy 52 11 32 0.2 48 48 S 9 15 29.71 1006 10 16.0934 0 0
4:55 pm 16:55 Partly Cloudy 49 9.6 33 0.3 53 53 S 7 11 29.74 1007 10 16.0934 0 0
5:15 pm 17:15 Partly Cloudy 47 8.6 33 0.4 57 57 S 8 13 29.74 1007 10 16.0934 0 0
5:35 pm 17:35 Cloudy 47 8.5 33 0.7 58 58 SSE 6 9 29.74 1007 10 16.0934 0 0
5:55 pm 17:55 Cloudy 47 8.5 33 0.5 57 57 SSE 8 13 29.71 1006 10 16.0934 0 0
6:15 pm 18:15 Cloudy 48 8.7 32 0.2 56 56 SE 8 13 29.71 1006 10 16.0934 0 0
6:35 pm 18:35 Cloudy 48 8.8 32 0 54 54 SE 8 13 29.71 1006 10 16.0934 0 0
6:55 pm 18:55 Cloudy 47 8.5 33 0.3 57 57 SE 8 13 29.71 1006 10 16.0934 0 0
7:15 pm 19:15 Cloudy 47 8.2 33 0.3 58 58 SE 8 13 29.71 1006 10 16.0934 0 0
7:35 pm 19:35 Cloudy 46 8 33 0.5 59 59 SE 9 15 29.71 1006 10 16.0934 0 0
7:55 pm 19:55 Cloudy 46 7.8 33 0.3 59 59 SE 9 15 29.71 1006 10 16.0934 0 0
8:15 pm 20:15 Cloudy 46 7.8 33 0.5 60 60 SSE 10 17 29.71 1006 10 16.0934 0 0
8:35 pm 20:35 Cloudy 46 7.8 33 0.5 60 60 SSE 10 17 29.71 1006 10 16.0934 0 0
8:55 pm 20:55 Cloudy with Drizzle 45 7.4 34 1.1 65 65 SSE 9 15 29.71 1006 10 16.0934 0 0
9:15 pm 21:15 Cloudy with Drizzle 45 7.1 35 1.6 68 68 SSE 8 13 29.71 1006 10 16.0934 0 0
9:35 pm 21:35 Cloudy with Rain 45 7 36 2 71 71 SE 10 17 29.71 1006 10 16.0934 0 0
9:55 pm 21:55 Cloudy 45 7.1 35 1.9 70 70 SE 12 19 29.71 1006 10 16.0934 0 0
10:15 pm 22:15 Cloudy 45 7.4 35 1.9 68 68 SE 12 19 29.71 1006 10 16.0934 0 0
10:35 pm 22:35 Cloudy 46 7.7 35 1.9 67 67 SE 14 22 29.68 1005 10 16.0934 0 0
10:55 pm 22:55 Cloudy 46 7.8 35 1.9 67 67 SE 14 22 29.68 1005 10 16.0934 0 0
11:15 pm 23:15 Cloudy with Light Rain 46 7.5 36 2.1 69 69 SE 18 30 29.65 1004 10 16.0934 0 0
11:35 pm 23:35 Cloudy 46 7.5 36 2 68 68 SSE 15 24 29.65 1004 10 16.0934 0 0
11:55 pm 23:55 Cloudy 45 7.1 36 2 70 70 SSE 16 26 29.65 1004 10 16.0934 0 0

Powered by AerisWeather